Skip Page Navigation
NASA JPL Caltech
NASA Logo - Jet Propulsion Laboratory + View the NASA Portal
+ Near-Earth Object (NEO) Program
Search JPL
JPL Home Earth Solar System Stars & Galaxies Technology
JPL Solar System Dynamics
BODIES ORBITS EPHEMERIDES TOOLS PHYSICAL DATA DISCOVERY FAQ SITE MAP
JPL Small-Body Database Browser
Search: [ help ]  
9885 Linux (1994 TM14)
Classification: Main-belt Asteroid          SPK-ID: 2009885
Ephemeris | Orbit Diagram | Orbital Elements | Physical Parameters | Discovery Circumstances ]

[ hide orbit diagram ]
Orbit Diagram
Note: Make sure you have Java enabled on your browser to see the applet. This applet is provided as a 3D orbit visualization tool. The applet was implemented using 2-body methods, and hence should not be used for determining accurate long-term trajectories (over several years or decades) or planetary encounter circumstances. For accurate long-term ephemerides, please instead use our Horizons system.

Note: If the applet has stopped working because of a recent Java upgrade, here is a possible workaround.
Orbit Viewer

Additional Notes: the orbits shown in the applet are color coded. The planets are white lines, and the asteroid/comet is a blue line. The bright white line indicates the portion of the orbit that is above the ecliptic plane, and the darker portion is below the ecliptic plane. Likewise for the asteroid/comet orbit, the light blue indicates the portion above the ecliptic plane, and the dark blue the portion below the ecliptic plane.

Orbit Viewer applet originally written and kindly provided by Osamu Ajiki (AstroArts), and further modified by Ron Baalke (JPL).


Orbital Elements at Epoch 2456800.5 (2014-May-23.0) TDB
Reference: JPL 8 (heliocentric ecliptic J2000)
 Element Value Uncertainty (1-sigma)   Units 
e .06741668188955152 4.5025e-08  
a 2.357939749573722 1.3338e-08 AU
q 2.198975275561982 1.0534e-07 AU
i 6.11072394665684 7.4781e-06 deg
node 198.2101467021864 4.368e-05 deg
peri 253.6017965668867 7.4738e-05 deg
M 92.34174463695371 5.9412e-05 deg
tp 2456461.270933509278
(2013-Jun-17.77093351)
0.00021812 JED
period 1322.505486730736
3.62
1.1222e-05
3.072e-08
d
yr
n .2722105908913303 2.3097e-09 deg/d
Q 2.516904223585462 1.4237e-08 AU
  Orbit Determination Parameters
   # obs. used (total)      1148  
   data-arc span      10643 days (29.14 yr)  
   first obs. used      1985-02-15  
   last obs. used      2014-04-07  
   planetary ephem.      DE431  
   SB-pert. ephem.      SB431-BIG16  
   condition code      0  
   fit RMS      .53337  
   data source      ORB  
   producer      Otto Matic  
   solution date      2014-Apr-17 13:57:29  

Additional Information
 Earth MOID = 1.2239 AU 
 T_jup = 3.542 
[ show covariance matrix ]

Ephemeris | Orbit Diagram | Orbital Elements | Physical Parameters | Discovery Circumstances ]

Physical Parameter Table
Parameter Symbol Value Units Sigma Reference Notes
absolute magnitude H 13.4 mag n/a MPO253433  

9885 Linux           Discovered 1994 Oct. 12 by Spacewatch at Kitt Peak.
The Linux operating system was created by Linus Torvalds in 1991. The source code for Linux was placed on the Internet. A massive public collaboration resulted in a robust, feature-rich operating system that has been used by several minor-planet surveys for data collection and analysis.
NOTE: some special characters may not display properly (any characters within {} are an attempt to place the proper accent above a character)
Reference: 20001111/MPCPages.arcLast Updated: 2013-03-29

Alternate Designations
 1994 TM14 = 1985 CT2 
Ephemeris | Orbit Diagram | Orbital Elements | Physical Parameters | Discovery Circumstances ]
ABOUT SSD CREDITS/AWARDS PRIVACY/COPYRIGHT GLOSSARY LINKS
FirstGov 2014-Apr-19 17:11 UT
(server date/time)  
NASA Home Page
Site Manager:   Donald K. Yeomans
Webmaster  Alan B. Chamberlin